This is the latest recevied weather packets stored in our database for station/object N1ORT. If no packets are shown the sender has not sent any weather packets the latest 10 day(s).
| Time | Temp. | Humidity | Pressure | Rain* | Wind** | Luminosity | Snow |
|---|---|---|---|---|---|---|---|
| 1777227757 | 16.67° C | 37% | 1018.4 hPa | 0 mm | - | 552 W/m² | - |
| 1777227453 | 17.78° C | 35% | 1018.4 hPa | 0 mm | - | 519 W/m² | - |
| 1777227149 | 17.78° C | 36% | 1018.4 hPa | 0 mm | - | 774 W/m² | - |
| 1777226846 | 16.67° C | 38% | 1018.4 hPa | 0 mm | - | 794 W/m² | - |
| 1777226545 | 17.22° C | 36% | 1018.5 hPa | 0 mm | - | 818 W/m² | - |
| 1777226241 | 17.78° C | 36% | 1018.6 hPa | 0 mm | - | 892 W/m² | - |
| 1777225937 | 16.67° C | 38% | 1018.6 hPa | 0 mm | - | 849 W/m² | - |
| 1777225633 | 16.11° C | 37% | 1018.8 hPa | 0 mm | - | 716 W/m² | - |
| 1777225330 | 16.11° C | 39% | 1018.9 hPa | 0 mm | - | 747 W/m² | - |
| 1777225027 | 15.56° C | 39% | 1018.6 hPa | 0 mm | - | 615 W/m² | - |
| 1777224724 | 15.56° C | 40% | 1018.8 hPa | 0 mm | - | 501 W/m² | - |
| 1777224419 | 15.56° C | 40% | 1018.5 hPa | 0 mm | - | 542 W/m² | - |
| 1777224115 | 16.11° C | 40% | 1018.5 hPa | 0 mm | - | 440 W/m² | - |
| 1777223812 | 16.11° C | 38% | 1018.6 hPa | 0 mm | - | 524 W/m² | - |
| 1777223508 | 16.67° C | 38% | 1018.9 hPa | 0 mm | - | 962 W/m² | - |
| 1777223206 | 16.11° C | 38% | 1018.7 hPa | 0 mm | - | 885 W/m² | - |
| 1777222903 | 15.56° C | 38% | 1018.5 hPa | 0 mm | - | 782 W/m² | - |
| 1777222600 | 16.11° C | 39% | 1018.6 hPa | 0 mm | - | 792 W/m² | - |
| 1777222298 | 15.56° C | 40% | 1018.7 hPa | 0 mm | - | 700 W/m² | - |
| 1777221996 | 15° C | 39% | 1018.9 hPa | 0 mm | - | 589 W/m² | - |
| 1777221691 | 15.56° C | 41% | 1018.8 hPa | 0 mm | - | 432 W/m² | - |
| 1777221387 | 15° C | 40% | 1018.7 hPa | 0 mm | - | 537 W/m² | - |
| 1777221085 | 15° C | 40% | 1018.6 hPa | 0 mm | - | 444 W/m² | - |
| 1777220780 | 15° C | 42% | 1018.9 hPa | 0 mm | - | 360 W/m² | - |
| 1777220476 | 14.44° C | 43% | 1018.5 hPa | 0 mm | - | 318 W/m² | - |
* Rain latest hour (hover to see other rain measurements)
** Current wind speed in m/s (hover to see current wind gust speed)